Погода Ростов-на-Дону

Погода Ростов-на-Дону : погода сейчас, прогноз погоды и архив. Всё, что Вы хотите узнать о погоде Ростов-на-Дону!

Хотите узнать прогноз погоды в Ростове-На-Дону? Тогда Вам сюда: Погода в Ростове-На-Дону

Поиск расширенной информации на нашем сайте:

Другие новости

Новости СМИ2

Главная страница сайта

Новости сайта

03.07.2017

Напоминаем, что на нашем специализированном сайте Метеоцентр.Азия вы можете получить высокодетализированные автоматические прогнозы погоды по пунктам России, СНГ и мира в авиационном формате (включающие направление и скорость ветра, видимость, явления погоды, количество и форму облачности, нижнюю и верхнюю границу облачности).


Погода Ростов-на-Дону - сегодня

Время (UTC), дата Ветер
(°,м/с) 
Видим.   Явления Облачность Т
(°С)
Тd
(°С)
f(%) Тe
(°С)
Pmin
(гПа)
dP
(гПа)
Po
(мм)
O2
(г/м3)
Тmin Tmax R s Состояние
почвы
06 29.12.17 090 (В) 6{10}  0100 м  туман  ?/?  
+0.9 +0.9 100 -2  1020.2  0.5  758  304  -0.7         
09 29.12.17 100 (В) 6{10}  1600 м  в посл. час туман  10/10 100 м 
[St]
+2.1 +2.1 100 -1  1020.6  0.3  758  303           
12 29.12.17 090 (В) 7{10}  5000 м  дымка{туман}  10/8 180 м средняя 
[Sc|Ac und]
+3.3 +2.9 97 1019.8  -0.6  758  301           
15 29.12.17 090 (В) 7-11{12}  6000 м  дым  10/8 180 м средняя 
[Sc|Ac und]
+3.5 +2.5 93 1019.5  -0.2  758  301    +3.5       
18 29.12.17 100 (В) 9-12{13}  6000 м  дымка  10/8 180 м средняя 
[Sc|Ac trans]
+3.4 +2.4 93 1018.8  -0.5  757  301           
21 29.12.17 100 (В) 11-14{14}  5000 м  дымка  10/8 180 м средняя 
[Sc|Ac und]
+3.5 +2.4 92 -1  1018.6  -0.1  757  301           
00 30.12.17 100 (В) 11-15{16}  5000 м  дымка  10/8 180 м средняя 
[Sc|Ac und]
+3.3 +2.2 92 -1  1017.7  -0.9  756  301           
03 30.12.17 110 (В) 8-12{15}  5000 м  дымка  10/6 150 м средняя 
[St|Ac und]
+2.8 +1.8 93 -1  1017.5  -0.2  756  301  +2.8         
06 30.12.17 100 (В) 8-12{15}  5000 м  дымка  10/6 150 м средняя 
[St|Ac trans]
+2.5 +1.6 94 -1  1017.6  756  302  +2.5         
09 30.12.17 090 (В) 7{12}  5000 м  дымка  9/6 180 м средняя 
[St|Ac trans]
+2.3 +1.2 92 -1  1017.2  -0.3  756  302           
12 30.12.17 090 (В) 7-10{12}  5000 м  дымка  10/6 150 м средняя 
[St|Ac und]
+2.3 +1.3 93 -1  1015.6  -1.5  755  301           
15 30.12.17 090 (В) 6{10}  3200 м  дымка  10/6 120 м средняя 
[St|Ac und]
+1.8 +1.1 95 -1  1015.4  -0.2  755  302    +2.9       
18 30.12.17 080 (В) 7{11}  1200 м  туман  10/6 100 м средняя 
[St|Ac und]
+1.6 +1.1 96 -2  1014.8  -0.7  754  302           
21 30.12.17 070 (В) 0300 м  туман  10/10 100 м 
[St]
+1.7 +1.2 96 1014.9  0.3  754  302           
00 31.12.17 080 (В) 0100 м  туман{дождь}  ?/?  
+1.3 +0.9 97 -2  1014.9  754  302           
03 31.12.17 080 (В) 0100 м  туман  ?/?  
+0.2 +0 99 -3  1014.9  754  304  +0.2    0.0     
06 31.12.17 100 (В) 4{10}  0100 м  туман  ?/?  
+0.2 +0.2 100 -2  1015.6  0.6  755  304  -0.2         
09 31.12.17 090 (В) 0100 м  туман  ?/?  
+1.5 +1.5 100 -1  1014.9  -0.5  754  302           
12 31.12.17 070 (В) 1600 м  в посл. час туман  10/8 100 м кучево-дожд., средняя 
[Cb calv|Ac und]
+2.9 +2.9 100 +2  1014.2  -0.7  754  300           
15 31.12.17 070 (В) 3100 м  слаб. ливневой дождь  10/6 1000 м кучево-дожд., средняя 
[Cb calv|Ac und]
+3.6 +3.6 100 +2  1013.4  -0.6  753  299    +3.6     
18 31.12.17 040 (СВ) 2000 м  слаб. ливневой дождь  10/6 240 м кучево-дожд., средняя 
[Cb calv|Ac und]
+4.7 +4.7 100 +4  1013.1  -0.2  753  297           
21 31.12.17 110 (В) 0200 м  туман{ливн. осадки}  ?/?  
+4.7 +4.4 98 +4  1012.3  -0.6  752  297           
15 02.01.18 110 (В) 10 км  дымка  10/10 180 м 
[St]
+3.7 +2.7 93 +1  1020.4  1.3  756  300    +4.3       
18 02.01.18 100 (В) 7{10}  10 км    10/10 150 м 
[St]
+2.4 +1.5 94 -1  1020.5  756  302           
12 08.01.18 050 (СВ) 10 км  {ливн. осадки}  9/6 420 м средняя 
[Sc|Ac trans]
+5.2 +2.9 85 +4  1028  -0.3  762  301           
Время (UTC), дата Ветер
(°,м/с) 
Видим.   Явления Облачность Т
(°С)
Тd
(°С)
f(%) Тe
(°С)
Pmin
(гПа)
dP
(гПа)
Po
(мм)
O2
(г/м3)
Тmin Tmax R s Состояние
почвы

Для получения пояснительной информации подведите курсор к названию столбца.

ПОГОДА Ростов-на-Дону - архив

Всё, что Вы хотите узнать о погоде Ростов-на-Дону - удобно и подробно!

Выберите нужную дату (начиная с 1 января 2015* года) и нажмите кнопку "Найти".
Будут отображены архивные сводки погоды по пункту Ростов-на-Дону, начиная с указанной даты.


Отображать данные в формате CSV (для использования в таблицах Excel)


Внимание! Наш архив погоды предназначен исключительно для личного некоммерческого использования в познавательных целях. Если Вам необходимы официальные справки о состоянии погоды (для производственных, юридических, коммерческих и т.п. целей), обращайтесь в органы Росгидромета.

*Примечание: данная дата относится к архиву по метеостанциям СССР (Россия, СНГ, Балтия).
Архив по метеостанциям Зарубежной Европы и Азии (кроме Китая) хранится 10 дней, по другим регионам земного шара (Китай, Африка, Америка, Австралия, Океания) - 1 день.

Ростов-на-Дону - район местоположения метеостанции


Название, широта, долгота, высота метеостанции:
Ростов-на-Дону (город) 47.3°ш. 39.8°д. 75 м над ур. моря [Российская Федерация]

Дополнительная информация

В oтличие oт бoльшинства пoгoдных сайтoв мы публикуем пoдрoбную метеoинфoрмацию в детальнoм прoфессиoнальнoм фoрмате.

Характеристики температуры и влажнoсти вoздуха измеряются на высoте 2 м в тени вдали oт зданий и деревьев.
Скoрoсть ветра измеряется на высoте 10 м (на урoвне рoста челoвека скoрoсть ветра ниже в 1.5-2 раза). Если метеoстанция нахoдится в гoрoде или в лесу, тo скoрoсть ветра занижена на 2-4 м/с пo сравнению с oткрытым местoм. Скoрoсть ветра над акватoриями крупных рек и oзёр, а также на вершинах хoлмoв на 2-5 м/с выше, чем в oбычных услoвиях.
Атмoсфернoе давление в разных тoчках местнoсти мoжет значительнo oтличаться oт давления на метеoстанции, в зависимoсти oт услoвий рельефа (при пoдъёме на 10 м давление пoнижается примернo на 1 мм рт.ст.).